Retour au catalogue

COSMOS 1561

ActifNavigationLEO
NORAD 15000·PAYLOAD·🇷🇺 Russia

Lancé May 28, 1984 depuis Plesetsk Cosmodrome

Loading…

Prochains Passages (prochaines 24 heures)

TLE

FraisSource: Space-Track

Époque: Sep 14, 2026, 08:33 UTC

1 15000U 84052C   26257.35690025 -.00000018  00000-0 -17038-4 0  9991
2 15000  74.0091 272.7580 0014350 121.1754 250.9484 12.47992545926865

Suivez COSMOS 1561 en temps réel avec AllMySat

Download on the App Store